Regional Weather Roundup
Issued by NWS

Home | Current Version | Previous Version | Graphics & Text | Print | Product List | Glossary On
Versions: 1 2 3 4 5 6 7 8 9 10 11 12 13 14 15 16 17 18 19 20 21 22 23 24 25 26 27 28 29 30 31 32 33 34 35 36 37 38 39 40 41 42 43 44 45 46 47 48 49 50
000
ASUS43 KDTX 250510
RWRMI
MICHIGAN HOURLY REGIONAL WEATHER ROUNDUP
NATIONAL WEATHER SERVICE DETROIT/PONTIAC MI
100 AM EDT SUN SEP 25 2016

NOTE: "FAIR" INDICATES FEW OR NO CLOUDS BELOW 12,000 FEET WITH NO
SIGNIFICANT WEATHER AND/OR OBSTRUCTION TO VISIBILITY.

MIZ047>049-052>055-059>063-066>070-074>076-081>083-250600-
SOUTHEAST LOWER MICHIGAN

CITY           SKY/WX    TMP DP  RH WIND       PRES   REMARKS
ADRIAN         CLEAR     57  53  86 E8        30.23R
ALMA           CLEAR     49  47  93 E5        30.24F
ANN ARBOR      CLEAR     52  46  80 N5        30.23R
BAD AXE        CLEAR     42  42  98 CALM      30.26F
CARO           CLEAR     44  44  98 CALM      30.24F
DETROIT CITY   CLEAR     56  47  71 N3        30.24R
DETROIT        CLEAR     55  46  71 N5        30.24R
FLINT          CLEAR     51  46  83 SE3       30.24S
GROSSE ILE     CLEAR     58  47  67 NE6       30.22R
HILLSDALE      CLEAR     55  52  88 E5        30.21S FOG
HOWELL         CLEAR     51  48  89 CALM      30.24S

CITY           SKY/WX    TMP DP  RH WIND       PRES   REMARKS
JACKSON        CLEAR     53  51  93 NE5       30.23R
LAMBERTVILLE   CLEAR     56  53  90 CALM      30.21F
LANSING        CLEAR     52  47  83 E5        30.24S
LAPEER         FAIR      45  44  97 CALM      30.25S
MASON          CLEAR     53  49  87 E3        30.24R
MONROE         CLEAR     56  49  78 NE3       30.21S
MT. CLEMENS    CLEAR     52  46  80 NW3       30.22R
PONTIAC        CLEAR     52  45  77 CALM      30.23S
PORT HOPE        N/A     62  48  60 E9        30.24S
PORT HURON       N/A     43  43 100 CALM      30.24S FOG
TRI CITIES     CLEAR     50  46  86 CALM      30.25F
MIDLAND        FAIR      46  46  99 CALM      30.23F
TROY           CLEAR     56  44  63 CALM      30.26R
SAGINAW HB     CLEAR     46  45  93 CALM      30.24F
$$
MIZ043>046-050>051-056>058-064>065-071>073-077>080-250600-
SOUTHWEST LOWER MICHIGAN

CITY           SKY/WX    TMP DP  RH WIND       PRES   REMARKS
BATTLE CREEK   CLEAR     59  53  80 E5        30.22R
BENTON HARBOR  CLEAR     61  56  83 E5        30.16F
BIG RAPIDS     CLEAR     53  48  85 CALM      30.23F
COLDWATER      CLEAR     58  53  83 E5        30.20S
FREMONT        FAIR      54  48  80 E6        30.20F
HOLLAND        CLEAR     58  52  80 E7        30.19F
GRAND RAPIDS   CLEAR     55  49  80 E9        30.21F
IONIA          FAIR      52  48  84 E6        30.22F
KALAMAZOO      CLEAR     58  52  80 CALM      30.21R
LUDINGTON      CLEAR     55  50  84 E7        30.19F
MARSHALL       CLEAR     56  53  90 CALM      30.21S
MOUNT PLEASANT CLEAR     49  47  96 CALM      30.24S FOG
MUSKEGON       CLEAR     57  51  80 E9        30.19F
SOUTH HAVEN    CLEAR     61  57  86 E6        30.17F
$$
MIZ016>042-250600-
NORTHERN LOWER MICHIGAN

CITY           SKY/WX    TMP DP  RH WIND       PRES   REMARKS
ALPENA         CLEAR     44  40  85 W3        30.27F
BEAVER ISLAND  CLEAR     56  50  81 SE7       30.23S
BELLAIRE       CLEAR     49  46  91 CALM      30.25S
CADILLAC       CLEAR     51  46  83 E6        30.22F
CHARLEVOIX     CLEAR     52  46  80 SE6       30.26F
FRANKFORT      MOCLDY    57  49  74 SE7       30.20S
GAYLORD        CLEAR     49  43  80 SW3       30.26F
GRAYLING       CLEAR     43  42  97 CALM      30.27S FOG
HARBOR SPRINGS CLEAR     50  45  81 NE5       30.24F
HOUGHTON LAKE  CLEAR     44  42  93 CALM      30.26F
MANISTEE       CLEAR     50  48  93 E7        30.20S
OSCODA         CLEAR     44  42  95 CALM      30.26S
PELLSTON       CLEAR     43  40  89 CALM      30.26S
ROGERS CITY    CLEAR     51  44  77 S3        30.27F
TRAVERSE CITY  CLEAR     56  48  74 VRB3      30.21F
$$
MIZ007>008-015-250600-
EASTERN UPPER MICHIGAN

CITY           SKY/WX    TMP DP  RH WIND       PRES   REMARKS
KINROSS        CLOUDY    53  46  77 SE3       30.25F
MACKINAC ISLAN CLOUDY    56  46  67 S10       30.25S
NEWBERRY       CLEAR     47  46  94 CALM      30.23S
S. S. MARIE    CLOUDY    54  49  83 E5        30.25F
MUNISING         N/A     53  47  79 CALM      30.18F
$$
MIZ004>006-011>014-085-250600-
CENTRAL UPPER MICHIGAN

CITY           SKY/WX    TMP DP  RH WIND       PRES   REMARKS
MANISTIQUE     CLEAR     58  50  74 SE9       30.20F
ESCANABA       CLEAR     49  48  97 CALM      30.18F
MENOMINEE      CLOUDY    56  54  93 CALM      30.18F
SAWYER-GWINN   CLEAR     52  47  83 S6        30.18F
$$
MIZ001>003-009>011-084-250600-
WESTERN UPPER MICHIGAN

CITY           SKY/WX    TMP DP  RH WIND       PRES   REMARKS
IRON MOUNTAIN  MOCLDY    55  48  77 SE3       30.17F
HOUGHTON       CLEAR     55  50  83 SE8       30.13F
COPPER HARBOR    N/A     60  51  72 SW10G20   30.12F
IRONWOOD       MOCLDY    61  53  75 S12G17    30.08S
$$

ABBREVIATIONS USED IN REMARKS
   TC - TEMPERATURE IN CELSIUS
  WCI - WIND CHILL INDEX
   HX - HEAT INDEX
  VSB - VISIBILITY





USA.gov is the U.S. government's official web portal to all federal, state and local government web resources and services.